Torna al catalogo

FREGAT R/B

AttivoMEO
NORAD 57518·ROCKET BODY·🇷🇺 Russia

Lanciato Aug 7, 2023 da Plesetsk Cosmodrome

Loading…

Prossimi Passaggi (prossime 24 ore)

TLE

AggiornatoSource: Space-Track

Epoca: Sep 14, 2026, 13:17 UTC

1 57518U 23114B   26257.55356736 -.00000010  00000-0  00000-0 0  9991
2 57518  65.3619  69.2758 0025360 196.5519 163.3903  2.13950534 24279

Traccia FREGAT R/B in tempo reale con AllMySat

Download on the App Store